Regional Weather Roundup
Issued by NWS

Home | Current Version | Previous Version | Graphics & Text | Print | Product List | Glossary On
Versions: 1 2 3 4 5 6 7 8 9 10 11 12 13 14 15 16 17 18 19 20 21 22 23 24 25 26 27 28 29 30 31 32 33 34 35 36 37 38 39 40 41 42 43 44 45 46 47 48 49 50
000
ASUS43 KLOT 200003
RWRIL

ILLINOIS REGIONAL WEATHER ROUNDUP
NATIONAL WEATHER SERVICE CHICAGO/ROMEOVILLE IL
600 PM CST FRI JAN 19 2018

NOTE: "FAIR" INDICATES FEW OR NO CLOUDS BELOW 12,000 FEET WITH NO
SIGNIFICANT WEATHER AND/OR OBSTRUCTIONS TO VISIBILITY.

* THESE STATIONS ARE NOT UNDER NWS QUALITY CONTROL. THEY ALSO MAY NOT
  REPORT WEATHER SUCH AS PRECIPITATION OR FOG.

ILZ001-002-007-009-015-016-024-200100-
NORTHWEST ILLINOIS

CITY           SKY/WX    TMP DP  RH WIND       PRES   REMARKS
MOLINE         FAIR      43  28  55 SW12      29.72S
6HR MIN TEMP:  40; 6HR MAX TEMP:  44;

STERLING*      FAIR      38  29  70 VRB3      29.74R
SAVANNA*       FAIR      35  29  80 S7        29.72R WCI  29
$$

ILZ003-004-008-010-011-017-018-200100-
NORTH CENTRAL ILLINOIS

CITY           SKY/WX    TMP DP  RH WIND       PRES   REMARKS
ROCKFORD       MOCLDY    37  28  70 S16       29.72F WCI  28
6HR MIN TEMP:  36; 6HR MAX TEMP:  39;

FREEPORT*      FAIR      37  29  73 SW21      29.71S WCI  26
ROCHELLE*      FAIR      35  30  82 S14       29.73F WCI  25
DE KALB*       FAIR      36  30  80 S18       29.74S WCI  25
PERU*          FAIR      40  26  57 SW18G24   29.76F
$$

ILZ005-006-012>014-019>023-200100-
NORTHEAST ILLINOIS

CITY           SKY/WX    TMP DP  RH WIND       PRES   REMARKS
CHICAGO-OHARE  MOCLDY    39  28  64 SW18G29   29.73F WCI  30
6HR MIN TEMP:  36; 6HR MAX TEMP:  40;

CHICAGO-MIDWAY MOCLDY    38  29  70 SW18G28   29.75F WCI  28
6HR MIN TEMP:  37; 6HR MAX TEMP:  39;

AURORA         FAIR      37  29  72 S12       29.76S WCI  29
6HR MIN TEMP:  35; 6HR MAX TEMP:  39;

LANSING*       FAIR      34  30  85 S16G23    29.80S WCI  23
JOLIET*        FAIR      39  31  73 S13G18    29.79S WCI  31
WAUKEGAN       FAIR      38  27  64 SW22G33   29.67F WCI  27
6HR MIN TEMP:  37; 6HR MAX TEMP:  41;

DUPAGE AIRPORT FAIR      35  29  78 S12       29.74S WCI  27
6HR MIN TEMP:  35; 6HR MAX TEMP:  37;

KANKAKEE*      FAIR     N/A N/A N/A S14       29.84S
WHEELING       FAIR      40  28  62 S13G24    29.74S
6HR MIN TEMP:  38; 6HR MAX TEMP:  40;

MORRIS*        FAIR      37  30  78 S12       29.77F WCI  29
NORTHERLY ISL    N/A     37  27  67 S20         N/A  WCI  27
$$

LMZ740>746-200100-
SOUTHERN LAKE MICHIGAN

STATION/POSITION SKY/WX   TEMP    WIND        PRES    VSBY  WAVE
                          AIR SEA DIR/SP/G                  HT/PER
                          (F)     (DEG/KT/KT) (MB)    (MI)  (FT/S)
HARRISON CRIB              38     200/ 29/ 34   N/A
BURNHAM HARBOR             37     210/ 16/ 19   N/A
CALUMET HARBOR             37     190/ 14/ 22 1007.4F
BURNS HARBOR               35     190/ 20/ 25 1009.1F
MICHIGAN CITY              35     180/ 21/ 27   N/A
$$

ILZ025>027-034>036-040-047-049-050-058-095>099-200100-
WEST-CENTRAL ILLINOIS

CITY           SKY/WX    TMP DP  RH WIND       PRES   REMARKS
QUINCY         CLOUDY    46  26  45 S17       29.82S
GALESBURG*     FAIR      43  31  61 S14G22    29.77F
JACKSONVILLE*  CLOUDY    46  23  41 S13       29.86S
PITTSFIELD*    PTCLDY    48  26  41 S10G17    29.86S
$$

ILZ028>032-037-038-041>044-048-051>054-059>061-200100-
CENTRAL ILLINOIS

CITY           SKY/WX    TMP DP  RH WIND       PRES   REMARKS
BLOOMINGTON    FAIR      36  29  75 S17       29.85R WCI  26
DECATUR        FAIR      38  29  70 S18G26    29.90S WCI  28
PEORIA         FAIR      44  27  51 S16       29.82S
6HR MIN TEMP:  41; 6HR MAX TEMP:  46;

LACON*         FAIR      43  26  49 SW10G17   29.78S
LINCOLN*       FAIR      40  31  69 S13       29.86S
SPRINGFIELD    FAIR      44  28  53 S16       29.88S
6HR MIN TEMP:  44; 6HR MAX TEMP:  52;

TAYLORVILLE    FAIR      38  28  68 S18       29.91S WCI  28
6HR MIN TEMP:  38; 6HR MAX TEMP:  46;

$$

ILZ033-039-045-046-055>057-062-063-200100-
EAST-CENTRAL ILLINOIS

CITY           SKY/WX    TMP DP  RH WIND       PRES   REMARKS
CHAMPAIGN      FAIR      35  28  75 S21       29.90S WCI  24
DANVILLE*      FAIR      35  25  68 S18G25    29.88S WCI  24
RANTOUL*       FAIR      37  31  79 S13       29.90R WCI  28
MATTOON        FAIR      35  26  69 S15       29.93S WCI  25
$$

ILZ079-100>102-200100-
SOUTHWEST ILLINOIS

CITY           SKY/WX    TMP DP  RH WIND       PRES   REMARKS
ALTON          CLEAR     43  27  52 S9        29.92S
BELLEVILLE     CLOUDY    39  25  56 S13       29.95R WCI  32
CAHOKIA*       CLOUDY    43  25  49 SE10      29.94R
SPARTA*        CLOUDY    37  29  71 S13G22    30.01R WCI  29
$$

ILZ064>066-069>071-074>076-080>082-084>086-088>090-092>094-200100-
SOUTH-CENTRAL ILLINOIS

CITY           SKY/WX    TMP DP  RH WIND       PRES   REMARKS
CARBONDALE     FAIR      36  25  64 S16G30    30.03S WCI  26
6HR MIN TEMP:  36; 6HR MAX TEMP:  42;

CAIRO*         MOCLDY    38  21  51 S9        30.10S WCI  31
EFFINGHAM*     FAIR      38  25  58 S9        29.98F WCI  32
MARION         PTCLDY    36  21  55 S12G21    30.05S WCI  27
MT. VERNON     FAIR      36  26  67 S13       30.02R WCI  27
CENTRALIA*     CLOUDY    38  28  69 S16       29.99R WCI  29
SALEM*         FAIR      39  25  58 S13       29.99R WCI  31
METROPOLIS*    FAIR      39  21  49 S10G16    30.10S WCI  32
$$

ILZ067-068-072-073-078-083-087-091-200100-
SOUTHEAST ILLINOIS

CITY           SKY/WX    TMP DP  RH WIND       PRES   REMARKS
LAWRENCEVILLE  FAIR      34  23  64 S15       30.03S WCI  24
FLORA*         FAIR      37  26  65 S10       30.01R WCI  29
FAIRFIELD*     FAIR      35  25  66 S7        30.02R WCI  29
HARRISBURG*    FAIR      38  23  54 S13       30.05S WCI  30
ROBINSON*      FAIR      33  23  65 S9        30.03R WCI  26
CARMI*         FAIR      35  23  61 S13       30.04S WCI  27
$$

ABBREVIATIONS USED IN REMARKS
   TC - TEMPERATURE IN CELSIUS
  WCI - WIND CHILL INDEX
   HX - HEAT INDEX
  VSB - VISIBILITY
$$





USA.gov is the U.S. government's official web portal to all federal, state and local government web resources and services.